Location: Bastelaar
(51.0950°N, 3.8602°E)
Time: 07:06:15
(UTC+00:00)

SJ 16-02 - Pass Details

Date: 18 November 2025
Orbit: 585 x 594 km, 75.0° (Epoch: 13 December)

Event Time Altitude Azimuth Distance (km) Brightness Sun altitude
Rises 19:56:54 0° 256° (WSW) 2,834 5.5 -37.8°
Reaches altitude 10° 20:00:08 10° 282° (WNW) 1,935 4.6 -38.3°
Enters shadow 20:00:48 12° 290° (WNW) 1,813 4.4 -38.4°
